Weather History for KHRI - August, 2013

Change the Weather History Date:

Tuesday, August 27, 2013

  Actual Average Record
Temperature  
Mean Temperature 72 °F -  
Max Temperature 90 °F 85 °F 99 °F (1934)
Min Temperature 53 °F 54 °F 41 °F (1930)
Cooling Degree Days 6    
Growing Degree Days 22 (Base 50)    
Moisture  
Dew Point 52 °F    
Average Humidity 56    
Maximum Humidity 90    
Minimum Humidity 25    
Precipitation  
Precipitation 0.00 in - - ()
Sea Level Pressure  
Sea Level Pressure 29.84 in    
Wind  
Wind Speed 2 mph (ENE)    
Max Wind Speed 6 mph    
Max Gust Speed -    
Visibility 10 miles    
Events      
Averages and records for this station are not official NWS values.
T = Trace of Precipitation, MM = Missing Value Source: NWS Daily Summary

Daily Weather History Graph

Daily Weather History Graph

Search for Another Location

Airport or City:

Trip Planner

Search our weather history database for the weather conditions in past years. The results will help you decide how hot, cold, wet, or windy it might be!

Date:

Astronomy

Aug. 27, 2013 Rise Set
Actual Time 6:12 AM PDT 7:43 PM PDT
Civil Twilight 5:41 AM PDT 8:14 PM PDT
Nautical Twilight 5:03 AM PDT 8:52 PM PDT
Astronomical Twilight 4:22 AM PDT 9:33 PM PDT
Moon 11:16 PM PDT (8/27) 1:38 PM PDT (8/27)
Length of Visible Light 14h 33m
Length of Day
13h 31m
Waning Gibbous, 56% of the Moon is Illuminated
Aug 27
Waning Gibbous
Aug 28
Last Quarter
Sep 5
New
Sep 12
First Quarter
Sep 19
Full

Hourly Weather History & Observations

Time (PDT) Temp. Dew Point Humidity Pressure Visibility Wind Dir Wind Speed Gust Speed Precip Events Conditions
12:53 AM 61.0 °F 53.1 °F 75% 29.93 in 10.0 mi Calm Calm - N/A   Clear
1:53 AM 60.1 °F 53.1 °F 78% 29.93 in 10.0 mi Calm Calm - N/A   Clear
2:53 AM 55.9 °F 53.1 °F 90% 29.92 in 10.0 mi Calm Calm - N/A   Clear
3:53 AM 57.9 °F 52.0 °F 81% 29.93 in 10.0 mi SSW 4.6 mph - N/A   Clear
4:53 AM 53.1 °F 50.0 °F 89% 29.93 in 10.0 mi Calm Calm - N/A   Clear
5:53 AM 53.1 °F 50.0 °F 89% 29.94 in 10.0 mi SE 4.6 mph - N/A   Clear
6:53 AM 53.1 °F 50.0 °F 89% 29.95 in 10.0 mi Calm Calm - N/A   Clear
7:53 AM 62.1 °F 53.1 °F 72% 29.95 in 10.0 mi Calm Calm - N/A   Clear
8:53 AM 68.0 °F 51.1 °F 55% 29.94 in 10.0 mi Variable 3.5 mph - N/A   Clear
9:53 AM 70.0 °F 52.0 °F 53% 29.93 in 10.0 mi Variable 3.5 mph - N/A   Clear
10:53 AM 73.0 °F 53.1 °F 49% 29.91 in 10.0 mi Calm Calm - N/A   Clear
11:53 AM 78.1 °F 53.1 °F 42% 29.88 in 10.0 mi NE 5.8 mph - N/A   Clear
12:53 PM 81.0 °F 52.0 °F 36% 29.85 in 10.0 mi NNE 5.8 mph - N/A   Clear
1:53 PM 84.0 °F 51.1 °F 32% 29.82 in 10.0 mi Variable 4.6 mph - N/A   Clear
2:53 PM 86.0 °F 50.0 °F 29% 29.79 in 10.0 mi Variable 4.6 mph - N/A   Clear
3:53 PM 88.0 °F 50.0 °F 27% 29.76 in 10.0 mi Variable 4.6 mph - N/A   Clear
4:53 PM 89.1 °F 51.1 °F 27% 29.74 in 10.0 mi North 4.6 mph - N/A   Clear
5:53 PM 90.0 °F 50.0 °F 25% 29.73 in 10.0 mi NNE 5.8 mph - N/A   Clear
6:53 PM 84.9 °F 51.1 °F 31% 29.71 in 10.0 mi NNE 4.6 mph - N/A   Clear
7:53 PM 77.0 °F 52.0 °F 42% 29.71 in 10.0 mi NNE 4.6 mph - N/A   Clear
8:53 PM 70.0 °F 53.1 °F 55% 29.71 in 10.0 mi NNE 3.5 mph - N/A   Clear
9:53 PM 69.1 °F 53.1 °F 57% 29.72 in 10.0 mi SSW 5.8 mph - N/A   Clear
10:53 PM 64.9 °F 52.0 °F 63% 29.73 in 10.0 mi South 3.5 mph - N/A   Clear
11:53 PM 63.0 °F 52.0 °F 67% 29.73 in 10.0 mi South 5.8 mph - N/A   Clear